Location: Betpouey
(42.8833°N, 0.0333°E)
Time: 06:05:43
(UTC+00:00)

Meteor 2-13 Rocket - Pass Details

Date: 02 July 2021
Orbit: 935 x 958 km, 82.5° (Epoch: 26 July)

Event Time Altitude Azimuth Distance (km) Brightness Sun altitude
Exits shadow 00:15:19 27° 245° (WSW) 1,769 5.6 -24.0°
Maximum altitude 00:17:44 36° 286° (WNW) 1,479 5.5 -24.0°
Drops below altitude 10° 00:23:21 10° 352° (N) 2,693 7.8 -23.9°
Sets 00:26:05 0° 1° (N) 3,640 8.9 -23.9°
